Location: Brienzwiler
(46.7508°N, 8.1014°E)
Time: 01:42:01
(UTC+00:00)

Iridium 2 - Pass Details

Date: 05 July 2020
Orbit: 503 x 516 km, 85.5° (Epoch: 11 August)

Event Time Altitude Azimuth Distance (km) Brightness Sun altitude
Rises 22:35:47 0° 351° (N) 2,650 9.0 -19.4°
Reaches altitude 10° 22:37:57 10° 346° (NNW) 1,757 7.6 -19.5°
Maximum altitude 22:41:42 54° 270° (W) 637 4.1 -19.6°
Enters shadow 22:42:32 43° 225° (SW) 733 4.1 -19.7°
